Weather History for Canby, MN

Change the Weather History Date:

Saturday, April 27, 2013

  Actual Average (KMML) Record (KMML)
Temperature  
Mean Temperature 59 °F -  
Max Temperature 74 °F 63 °F 86 °F (1981)
Min Temperature 44 °F 40 °F 24 °F (2005)
Degree Days  
Heating Degree Days 6    
Growing Degree Days 9 (Base 50)    
Moisture  
Dew Point 37 °F    
Average Humidity 45    
Maximum Humidity 69    
Minimum Humidity 25    
Precipitation  
Precipitation 0.00 in - - ()
Sea Level Pressure  
Sea Level Pressure 30.01 in    
Wind  
Wind Speed 5 mph (SSW)    
Max Wind Speed 15 mph    
Max Gust Speed 20 mph    
Visibility 7 miles    
Events      
Averages and records for this station are not official NWS values.
T = Trace of Precipitation, MM = Missing Value Source: NWS Daily Summary

Daily Weather History Graph

Daily Weather History Graph

Search for Another Location

Airport:

Trip Planner

Search our weather history database for the weather conditions in past years. The results will help you decide how hot, cold, wet, or windy it might be!

Date:

Astronomy

Apr. 27, 2013 Rise Set
Actual Time 6:20 AM CDT 8:25 PM CDT
Civil Twilight 5:48 AM CDT 8:57 PM CDT
Nautical Twilight 5:09 AM CDT 9:36 PM CDT
Astronomical Twilight 4:26 AM CDT 10:19 PM CDT
Moon 11:00 PM CDT (4/27) 7:36 AM CDT (4/27)
Length of Visible Light 15h 08m
Length of Day
14h 04m
Waning Gibbous, 95% of the Moon is Illuminated
Apr 27
Waning Gibbous
May 2
Last Quarter
May 9
New
May 17
First Quarter
May 24
Full

Hourly Weather History & Observations

Time (CDT) Temp. Windchill Dew Point Humidity Pressure Visibility Wind Dir Wind Speed Gust Speed Precip Events Conditions
12:17 AM 44.8 °F - 35.2 °F 69% 30.15 in 10.0 mi Calm Calm - N/A   Clear
12:36 AM 46.4 °F - 34.0 °F 62% 30.15 in 10.0 mi Calm Calm - N/A   Clear
12:57 AM 47.1 °F - 34.0 °F 60% 30.15 in 10.0 mi Calm Calm - N/A   Clear
1:17 AM 47.8 °F - 34.2 °F 59% 30.14 in 10.0 mi Calm Calm - N/A   Clear
1:36 AM 48.2 °F - 34.2 °F 58% 30.14 in 10.0 mi Calm Calm - N/A   Clear
1:57 AM 48.4 °F - 34.0 °F 58% 30.14 in 10.0 mi Calm Calm - N/A   Clear
2:17 AM 48.2 °F - 33.6 °F 57% 30.14 in 10.0 mi Calm Calm - N/A   Clear
2:37 AM 47.7 °F - 34.0 °F 59% 30.13 in 10.0 mi Calm Calm - N/A   Clear
2:57 AM 46.9 °F - 34.0 °F 61% 30.12 in 10.0 mi Calm Calm - N/A   Clear
3:17 AM 47.3 °F - 33.6 °F 59% 30.12 in 10.0 mi Calm Calm - N/A   Clear
3:36 AM 47.3 °F - 33.8 °F 59% 30.11 in 10.0 mi Calm Calm - N/A   Clear
3:57 AM 46.6 °F - 33.4 °F 60% 30.11 in 10.0 mi Calm Calm - N/A   Clear
4:17 AM 45.7 °F 44.4 °F 33.8 °F 63% 30.11 in 10.0 mi SW 3.5 mph - N/A   Clear
4:37 AM 45.7 °F 44.4 °F 33.6 °F 63% 30.11 in 10.0 mi SW 3.5 mph - N/A   Clear
4:57 AM 45.5 °F - 33.3 °F 62% 30.10 in 10.0 mi Calm Calm - N/A   Clear
5:17 AM 46.9 °F - 32.9 °F 58% 30.10 in 10.0 mi SW 5.8 mph - N/A   Clear
5:37 AM 47.7 °F - 32.9 °F 57% 30.09 in 10.0 mi SW 8.1 mph - N/A   Clear
5:56 AM 47.3 °F - 32.9 °F 57% 30.09 in 10.0 mi Calm Calm - N/A   Clear
6:17 AM 47.3 °F - 32.9 °F 57% 30.09 in 10.0 mi SW 8.1 mph - N/A   Clear
6:37 AM 48.4 °F - 32.4 °F 54% 30.09 in 10.0 mi SW 8.1 mph - N/A   Clear
6:57 AM 48.6 °F - 32.4 °F 54% 30.09 in 10.0 mi SW 10.4 mph - N/A   Clear
7:16 AM 48.9 °F - 33.1 °F 54% 30.09 in 10.0 mi SW 15.0 mph - N/A   Clear
7:37 AM 49.5 °F - 34.0 °F 55% 30.09 in 10.0 mi SW 9.2 mph - N/A   Clear
7:57 AM 50.9 °F - 34.0 °F 52% 30.08 in 10.0 mi SW 10.4 mph - N/A   Clear
8:17 AM 53.1 °F - 34.9 °F 50% 30.08 in 10.0 mi SW 10.4 mph - N/A   Clear
8:37 AM 54.7 °F - 35.6 °F 49% 30.08 in 10.0 mi SW 12.7 mph - N/A   Clear
8:57 AM 56.3 °F - 36.0 °F 46% 30.08 in 10.0 mi SW 11.5 mph - N/A   Clear
9:17 AM 57.7 °F - 36.0 °F 44% 30.07 in 10.0 mi SW 10.4 mph - N/A   Clear
9:37 AM 58.8 °F - 36.9 °F 44% 30.07 in 10.0 mi SW 9.2 mph - N/A   Clear
9:56 AM 60.3 °F - 37.0 °F 42% 30.06 in 10.0 mi SSW 11.5 mph 17.3 mph N/A   Clear
10:17 AM 61.3 °F - 37.4 °F 41% 30.06 in 10.0 mi SSW 10.4 mph - N/A   Clear
10:37 AM 62.4 °F - 37.2 °F 39% 30.06 in 10.0 mi SW 10.4 mph 16.1 mph N/A   Clear
10:57 AM 63.5 °F - 37.6 °F 38% 30.06 in 10.0 mi SW 10.4 mph - N/A   Clear
11:16 AM 63.7 °F - 37.4 °F 38% 30.05 in 10.0 mi SW 11.5 mph 18.4 mph N/A   Clear
11:37 AM 64.4 °F - 37.0 °F 36% 30.05 in 10.0 mi SW 15.0 mph 19.6 mph N/A   Clear
11:57 AM 65.8 °F - 38.3 °F 36% 30.05 in 10.0 mi SSW 9.2 mph 16.1 mph N/A   Clear
12:16 PM 66.2 °F - 39.0 °F 37% 30.05 in 10.0 mi SSW 6.9 mph - N/A   Clear
12:37 PM 67.1 °F - 39.4 °F 36% 30.04 in 2.5 mi SSW 9.2 mph 17.3 mph N/A   Haze
12:57 PM 68.4 °F - 38.7 °F 34% 30.03 in 7.0 mi South 9.2 mph - N/A   Clear
1:17 PM 69.3 °F - 39.2 °F 33% 30.01 in 3.0 mi SSE 10.4 mph - N/A   Haze
1:37 PM 70.0 °F - 40.1 °F 34% 30.01 in 4.0 mi South 10.4 mph - N/A   Haze
1:57 PM 70.5 °F - 37.8 °F 30% 30.00 in 4.0 mi South 8.1 mph - N/A   Haze
2:17 PM 71.4 °F - 38.3 °F 30% 29.99 in 10.0 mi SW 9.2 mph - N/A   Clear
2:36 PM 72.0 °F - 39.4 °F 31% 29.98 in 7.0 mi South 11.5 mph 17.3 mph N/A   Clear
2:57 PM 72.7 °F - 39.7 °F 30% 29.97 in 7.0 mi South 11.5 mph 17.3 mph N/A   Clear
3:17 PM 72.9 °F - 38.5 °F 29% 29.96 in 7.0 mi South 10.4 mph 17.3 mph N/A   Clear
3:36 PM 73.2 °F - 38.3 °F 28% 29.95 in 7.0 mi SSW 9.2 mph - N/A   Clear
3:57 PM 73.4 °F - 37.8 °F 27% 29.95 in 10.0 mi SSW 10.4 mph 16.1 mph N/A   Clear
4:16 PM 73.4 °F - 37.4 °F 27% 29.94 in 4.0 mi South 11.5 mph - N/A   Haze
4:37 PM 73.8 °F - 37.4 °F 27% 29.93 in 5.0 mi South 5.8 mph - N/A   Haze
4:56 PM 73.8 °F - 36.9 °F 26% 29.92 in 7.0 mi South 10.4 mph - N/A   Clear
5:17 PM 73.6 °F - 36.3 °F 26% 29.92 in 3.0 mi SSW 8.1 mph - N/A   Haze
5:37 PM 74.3 °F - 36.5 °F 25% 29.91 in 7.0 mi SSW 8.1 mph - N/A   Clear
5:57 PM 73.8 °F - 36.9 °F 26% 29.90 in 10.0 mi South 11.5 mph - N/A   Clear
6:17 PM 73.4 °F - 36.7 °F 26% 29.89 in 1.2 mi South 6.9 mph - N/A   Haze
6:37 PM 72.7 °F - 36.1 °F 26% 29.89 in 1.0 mi SSE 10.4 mph - N/A   Haze
6:57 PM 70.5 °F - 36.9 °F 29% 29.89 in 0.8 mi SSE 9.2 mph - N/A   Haze
7:17 PM 69.8 °F - 37.4 °F 31% 29.89 in 0.8 mi SSE 9.2 mph - N/A   Haze
7:36 PM 68.4 °F - 39.0 °F 34% 29.87 in 0.5 mi SSE 9.2 mph - N/A   Haze
7:57 PM 66.0 °F - 41.5 °F 41% 29.87 in 0.2 mi SSE 8.1 mph - N/A   Haze
8:17 PM 64.4 °F - 42.8 °F 45% 29.87 in 0.2 mi SSE 5.8 mph - N/A   Haze
8:37 PM 62.2 °F - 43.0 °F 49% 29.87 in 0.5 mi SSE 6.9 mph - N/A   Haze
8:57 PM 60.4 °F - 43.3 °F 53% 29.86 in 0.2 mi SSE 9.2 mph - N/A   Haze
9:16 PM 60.1 °F - 42.8 °F 53% 29.86 in 1.5 mi SSE 8.1 mph - N/A   Haze
9:37 PM 58.1 °F - 42.1 °F 55% 29.85 in 1.0 mi SSE 5.8 mph - N/A   Haze
9:57 PM 57.7 °F - 40.5 °F 53% 29.84 in 1.0 mi SSE 9.2 mph - N/A   Haze
10:17 PM 58.3 °F - 39.6 °F 50% 29.84 in 4.0 mi Calm Calm - N/A   Haze
10:36 PM 59.4 °F - 38.7 °F 46% 29.84 in 4.0 mi South 8.1 mph - N/A   Haze
10:57 PM 59.5 °F - 37.2 °F 43% 29.83 in 5.0 mi South 11.5 mph - N/A   Haze
11:17 PM 59.4 °F - 36.7 °F 43% 29.83 in 7.0 mi South 13.8 mph 18.4 mph N/A   Clear
11:36 PM 59.0 °F - 37.8 °F 45% 29.82 in 4.0 mi South 11.5 mph - N/A   Haze
11:57 PM 58.3 °F - 39.2 °F 49% 29.82 in 2.5 mi South 13.8 mph - N/A   Haze